Flag for Malawi Weather past 2 weeks in Mzuzu, Malawi

Now
66 °F

Passing clouds.


Feels Like: 66 °F
Forecast: 52 / 79 °F
Wind: 7 mph from Southeast

Location: Songea

Current Time: Sep 17, 2014 at 11:58:08 PM

Latest Report: Sep 17, 2014 at 11:00 PM


Visibility: N/A

Pressure: 30.09 "Hg

Humidity: 49%

Dew point: 46 °F

Location of MzuzuLocation

Historic Weather in Mzuzu — Graph

°F

Mzuzu temperature yesterday

Maximum temperature yesterday: 82 °F (at 3:00 PM)
Minimum temperature yesterday: 63 °F (at 5:00 AM)
Average temperature yesterday: 72 °F

Past Weeks' High & Low Weather Summary

 TemperatureHumidityPressure
High84 °F (Sep 15, 1:00 PM)94% (Sep 7, 9:00 AM)30.30 "Hg (Sep 7, 9:00 AM)
Low55 °F (Sep 3, 6:00 AM)23% (Sep 16, 3:00 PM)30.04 "Hg (Sep 17, 3:00 PM)
Average71 °F58%30.19 "Hg
* Reported Sep 2 10:00 PM — Sep 17 10:00 PM, Mzuzu, Weather by CustomWeather, © 2014

Note: Actual official high and low records may vary slightly from our data, if they occured in-between our weather recording intervals... More about our weather records

Advertising

Mzuzu weather history for previous 24 hours

 ConditionsComfort  
Time TempWeatherWind HumidityBarometerVisibility
10:00 PM
Sep 17
68 °FPassing clouds.12 mph43%30.07 "HgN/A
9:00 PM70 °FPassing clouds.No wind43%30.07 "HgN/A
8:00 PM70 °FPassing clouds.9 mph40%30.07 "HgN/A
7:00 PM70 °FPassing clouds.7 mph43%30.07 "HgN/A
5:00 PM81 °FPassing clouds.12 mph32%30.04 "HgN/A
4:00 PM81 °FPassing clouds.14 mph32%30.04 "HgN/A
3:00 PM84 °FPassing clouds.21 mph27%30.04 "HgN/A
1:00 PM82 °FPassing clouds.12 mph30%30.09 "HgN/A
12:00 PM81 °FPassing clouds.16 mph30%30.09 "HgN/A
11:00 AM82 °FPassing clouds.21 mph26%30.18 "HgN/A
10:00 AM77 °FPassing clouds.16 mph36%30.21 "HgN/A
9:00 AM73 °FMild.12 mph53%30.18 "HgN/A
8:00 AM68 °FPassing clouds.12 mph69%30.21 "HgN/A
7:00 AM64 °FPassing clouds.6 mph73%30.18 "HgN/A
6:00 AM57 °FPassing clouds.No wind82%30.15 "HgN/A
11:00 PM
Sep 16
64 °FClear.No wind64%30.18 "HgN/A
Weather by CustomWeather, © 2014

See weather overviewHow to use our weather pages